ETH920 DGAA-HAAB

Flight info

Callsign ETH920
Flight time N/A
Altitude 37000
Route EREKA1D EREKA UL433 LAG UQ200 VOLKO/N0489F390 UQ200 IPISU DCT ASKON L558 DASTU UT139 BRO BRO2A
Aircraft A35K/H-SDE2E3GHIJ3J4J5LM1ORWXY/LB1D1

Departure

Time 2026-05-08 14:52
Airport Kotoka International Airport (DGAA)

Arrival

Time N/A
Airport Addis Ababa Bole International Airport (HAAB)
Time Latitude Longitude Altitude Speed Heading
2026-05-08 14:31 5.60196 -0.17160 220 ft 0 kts 202°
2026-05-08 14:45 5.60195 -0.17161 213 ft 1 kts 202°
2026-05-08 14:45 5.60192 -0.17160 213 ft 0 kts 184°
2026-05-08 14:45 5.60189 -0.17159 213 ft 0 kts 170°
2026-05-08 14:46 5.60187 -0.17157 213 ft 0 kts 156°
2026-05-08 14:46 5.60182 -0.17139 224 ft 2 kts 81°
2026-05-08 14:46 5.60193 -0.17119 223 ft 4 kts 61°
2026-05-08 14:46 5.60212 -0.17086 219 ft 7 kts 55°
2026-05-08 14:47 5.60251 -0.17051 222 ft 8 kts 34°
2026-05-08 14:47 5.60309 -0.17019 221 ft 11 kts 24°
2026-05-08 14:47 5.60384 -0.16986 220 ft 13 kts 25°
2026-05-08 14:47 5.60472 -0.16950 224 ft 15 kts 21°
2026-05-08 14:48 5.60573 -0.16910 219 ft 17 kts 22°
2026-05-08 14:48 5.60657 -0.16871 223 ft 18 kts 31°
2026-05-08 14:48 5.60770 -0.16825 214 ft 20 kts 21°
2026-05-08 14:48 5.60903 -0.16772 222 ft 21 kts 21°
2026-05-08 14:49 5.61048 -0.16712 222 ft 23 kts 22°
2026-05-08 14:49 5.61204 -0.16648 222 ft 25 kts 22°
2026-05-08 14:49 5.61371 -0.16579 221 ft 27 kts 22°
2026-05-08 14:49 5.61530 -0.16513 219 ft 13 kts 21°
2026-05-08 14:50 5.61593 -0.16486 221 ft 10 kts 32°
2026-05-08 14:50 5.61621 -0.16420 221 ft 11 kts 94°
2026-05-08 14:50 5.61598 -0.16345 216 ft 12 kts 109°
2026-05-08 14:50 5.61542 -0.16307 219 ft 10 kts 185°
2026-05-08 14:51 5.61475 -0.16332 220 ft 11 kts 203°
2026-05-08 14:51 5.61366 -0.16384 219 ft 39 kts 205°
2026-05-08 14:51 5.60895 -0.16565 215 ft 104 kts 200°
2026-05-08 14:51 5.60048 -0.16915 223 ft 158 kts 203°
2026-05-08 14:52 5.59003 -0.17379 740 ft 165 kts 203°
2026-05-08 14:52 5.57011 -0.16710 1723 ft 183 kts 126°
2026-05-08 14:52 5.56616 -0.15395 1825 ft 213 kts 105°
2026-05-08 14:53 5.56341 -0.13833 1943 ft 240 kts 105°
2026-05-08 14:53 5.56002 -0.12113 2150 ft 262 kts 106°
2026-05-08 14:53 5.55614 -0.10288 2667 ft 267 kts 105°
2026-05-08 14:53 5.55364 -0.08437 3319 ft 270 kts 97°
2026-05-08 14:54 5.55417 -0.06557 4001 ft 269 kts 86°
2026-05-08 14:54 5.55752 -0.04713 4708 ft 269 kts 78°
2026-05-08 14:54 5.56337 -0.02936 5412 ft 267 kts 70°
2026-05-08 14:54 5.57118 -0.01257 6130 ft 265 kts 66°
2026-05-08 14:55 5.57956 0.00402 6727 ft 267 kts 66°
2026-05-08 14:55 5.58799 0.02070 7346 ft 269 kts 66°
2026-05-08 14:55 5.59643 0.03750 7958 ft 269 kts 67°
2026-05-08 14:55 5.60477 0.05419 8625 ft 268 kts 67°
2026-05-08 14:56 5.61310 0.07093 9233 ft 268 kts 67°
2026-05-08 14:56 5.62143 0.08768 9895 ft 267 kts 68°
2026-05-08 14:56 5.62981 0.10461 10279 ft 277 kts 68°
2026-05-08 14:56 5.63857 0.12241 10500 ft 291 kts 68°
2026-05-08 14:57 5.64775 0.14105 10734 ft 305 kts 67°
2026-05-08 14:57 5.65737 0.16057 10939 ft 318 kts 67°
2026-05-08 14:57 5.66741 0.18085 11166 ft 330 kts 67°
2026-05-08 14:57 5.67782 0.20182 11370 ft 342 kts 66°
2026-05-08 14:58 5.68862 0.22351 11541 ft 353 kts 66°
2026-05-08 14:58 5.69973 0.24577 11840 ft 359 kts 66°
2026-05-08 14:58 5.71097 0.26829 12221 ft 362 kts 66°
2026-05-08 14:58 5.72226 0.29096 12657 ft 364 kts 66°
2026-05-08 14:59 5.73361 0.31382 13079 ft 367 kts 66°
2026-05-08 14:59 5.75756 0.35946 13863 ft 372 kts 64°
2026-05-08 14:59 5.77000 0.38232 14208 ft 375 kts 64°
2026-05-08 15:00 5.78249 0.40540 14506 ft 378 kts 64°
2026-05-08 15:00 5.79505 0.42870 14864 ft 381 kts 64°
2026-05-08 15:00 5.80768 0.45218 15218 ft 383 kts 64°
2026-05-08 15:00 5.82036 0.47580 15551 ft 386 kts 64°
2026-05-08 15:01 5.83317 0.49968 15897 ft 389 kts 64°
2026-05-08 15:01 5.84604 0.52369 16230 ft 393 kts 64°
2026-05-08 15:01 5.85901 0.54789 16581 ft 395 kts 64°
2026-05-08 15:01 5.87210 0.57231 16915 ft 398 kts 64°
2026-05-08 15:02 5.88529 0.59694 17248 ft 401 kts 64°
2026-05-08 15:02 5.89854 0.62168 17594 ft 404 kts 64°
2026-05-08 15:02 5.91189 0.64661 17920 ft 407 kts 64°
2026-05-08 15:02 5.92536 0.67175 18231 ft 410 kts 64°
2026-05-08 15:03 5.93892 0.69707 18532 ft 412 kts 64°
2026-05-08 15:03 5.95255 0.72253 18839 ft 414 kts 64°
2026-05-08 15:03 5.96620 0.74804 19129 ft 416 kts 64°
2026-05-08 15:03 5.97988 0.77380 19412 ft 419 kts 65°
2026-05-08 15:04 5.99211 0.80039 19696 ft 420 kts 69°
2026-05-08 15:04 6.00285 0.82773 19964 ft 422 kts 71°
2026-05-08 15:04 6.01293 0.85553 20222 ft 424 kts 72°
2026-05-08 15:04 6.02284 0.88347 20509 ft 426 kts 72°
2026-05-08 15:05 6.03285 0.91158 20781 ft 428 kts 72°
2026-05-08 15:05 6.04304 0.93971 21051 ft 430 kts 72°
2026-05-08 15:05 6.05341 0.96795 21310 ft 432 kts 71°
2026-05-08 15:05 6.06392 0.99626 21573 ft 433 kts 71°
2026-05-08 15:06 6.07476 1.02457 21811 ft 436 kts 70°
2026-05-08 15:06 6.08666 1.05269 22071 ft 438 kts 68°
2026-05-08 15:06 6.09910 1.08067 22318 ft 440 kts 68°
2026-05-08 15:06 6.11174 1.10878 22557 ft 442 kts 68°
2026-05-08 15:07 6.12437 1.13698 22814 ft 444 kts 68°
2026-05-08 15:07 6.13695 1.16540 23063 ft 446 kts 68°
2026-05-08 15:07 6.14944 1.19389 23285 ft 447 kts 68°
2026-05-08 15:07 6.16192 1.22258 23521 ft 449 kts 68°
2026-05-08 15:08 6.17411 1.25156 23735 ft 450 kts 71°
2026-05-08 15:08 6.18044 1.27134 23876 ft 450 kts 77°
2026-05-08 15:08 6.18930 1.31260 24107 ft 453 kts 81°
2026-05-08 15:08 6.19475 1.34382 24297 ft 454 kts 82°
2026-05-08 15:09 6.19973 1.37526 24496 ft 456 kts 82°
2026-05-08 15:09 6.20453 1.40674 24694 ft 457 kts 82°
2026-05-08 15:09 6.20933 1.43835 24904 ft 458 kts 82°
2026-05-08 15:09 6.21420 1.47007 25077 ft 460 kts 82°
2026-05-08 15:10 6.21916 1.50189 25302 ft 461 kts 82°
2026-05-08 15:10 6.22417 1.53376 25454 ft 463 kts 82°
2026-05-08 15:10 6.22923 1.56566 25729 ft 462 kts 82°
2026-05-08 15:10 6.23431 1.59763 25882 ft 465 kts 82°
2026-05-08 15:11 6.23941 1.62975 26104 ft 465 kts 82°
2026-05-08 15:11 6.24452 1.66191 26261 ft 468 kts 82°
2026-05-08 15:11 6.24965 1.69424 26455 ft 469 kts 82°
2026-05-08 15:11 6.25478 1.72662 26621 ft 471 kts 82°
2026-05-08 15:12 6.25993 1.75912 26803 ft 472 kts 81°
2026-05-08 15:12 6.26510 1.79178 27004 ft 473 kts 82°
2026-05-08 15:12 6.27029 1.82453 27148 ft 475 kts 81°
2026-05-08 15:12 6.27547 1.85725 27357 ft 476 kts 82°
2026-05-08 15:13 6.28068 1.89020 27481 ft 478 kts 81°
2026-05-08 15:13 6.28591 1.92324 27702 ft 479 kts 81°
2026-05-08 15:13 6.29115 1.95641 27819 ft 482 kts 81°
2026-05-08 15:13 6.29640 1.98969 28005 ft 483 kts 81°
2026-05-08 15:14 6.30166 2.02302 28141 ft 484 kts 81°
2026-05-08 15:14 6.30696 2.05656 28340 ft 486 kts 81°
2026-05-08 15:14 6.31224 2.09006 28477 ft 487 kts 81°
2026-05-08 15:14 6.31755 2.12376 28648 ft 488 kts 81°
2026-05-08 15:15 6.32289 2.15762 28783 ft 490 kts 81°
2026-05-08 15:15 6.32823 2.19151 28941 ft 491 kts 81°
2026-05-08 15:15 6.33357 2.22541 29081 ft 493 kts 81°
2026-05-08 15:15 6.33899 2.25987 29236 ft 494 kts 81°
2026-05-08 15:16 6.34437 2.29405 29394 ft 495 kts 81°
2026-05-08 15:16 6.34974 2.32808 29817 ft 490 kts 81°
2026-05-08 15:16 6.35504 2.36183 30055 ft 489 kts 81°
2026-05-08 15:16 6.36219 2.39531 30100 ft 491 kts 74°
2026-05-08 15:17 6.37267 2.42794 30285 ft 491 kts 71°
2026-05-08 15:17 6.38392 2.46033 30481 ft 490 kts 71°
2026-05-08 15:17 6.39550 2.49256 30690 ft 490 kts 70°
2026-05-08 15:17 6.40724 2.52471 30883 ft 490 kts 70°
2026-05-08 15:18 6.41901 2.55682 31104 ft 490 kts 70°
2026-05-08 15:18 6.43079 2.58900 31328 ft 489 kts 70°
2026-05-08 15:18 6.44249 2.62108 31551 ft 489 kts 70°
2026-05-08 15:18 6.45418 2.65321 31769 ft 489 kts 70°
2026-05-08 15:19 6.46582 2.68530 31950 ft 490 kts 70°
2026-05-08 15:19 6.47749 2.71754 32114 ft 490 kts 70°
2026-05-08 15:19 6.48916 2.74974 32361 ft 490 kts 70°
2026-05-08 15:19 6.50090 2.78181 32602 ft 489 kts 70°
2026-05-08 15:20 6.51284 2.81384 32851 ft 488 kts 69°
2026-05-08 15:20 6.52481 2.84571 33095 ft 487 kts 69°
2026-05-08 15:20 6.53682 2.87755 33339 ft 487 kts 68°
2026-05-08 15:20 6.54911 2.90920 33630 ft 486 kts 67°
2026-05-08 15:21 6.56148 2.94082 33928 ft 485 kts 68°
2026-05-08 15:21 6.57372 2.97238 34194 ft 484 kts 68°
2026-05-08 15:21 6.58578 3.00393 34488 ft 483 kts 68°
2026-05-08 15:21 6.59769 3.03545 34768 ft 482 kts 68°
2026-05-08 15:22 6.60951 3.06694 35039 ft 481 kts 69°
2026-05-08 15:22 6.62131 3.09851 35178 ft 484 kts 70°
2026-05-08 15:22 6.63311 3.13016 35411 ft 483 kts 70°
2026-05-08 15:22 6.64491 3.16182 35695 ft 482 kts 70°
2026-05-08 15:23 6.65666 3.19335 35970 ft 481 kts 70°
2026-05-08 15:23 6.66839 3.22481 36236 ft 481 kts 70°
2026-05-08 15:23 6.68014 3.25628 36502 ft 480 kts 69°
2026-05-08 15:23 6.69186 3.28765 36770 ft 479 kts 69°
2026-05-08 15:24 6.69901 3.30866 36875 ft 480 kts 73°
2026-05-08 15:24 6.70648 3.34149 36910 ft 482 kts 82°
2026-05-08 15:24 6.71335 3.40867 36906 ft 485 kts 85°
2026-05-08 15:25 6.71813 3.47636 36902 ft 485 kts 86°
2026-05-08 15:25 6.72272 3.54410 36896 ft 486 kts 85°
2026-05-08 15:26 6.72751 3.61188 36890 ft 486 kts 85°
2026-05-08 15:26 6.73241 3.67963 36886 ft 486 kts 85°
2026-05-08 15:27 6.73733 3.74741 36886 ft 486 kts 85°
2026-05-08 15:27 6.74229 3.81558 36885 ft 486 kts 86°
2026-05-08 15:28 6.74719 3.88344 36885 ft 487 kts 85°
2026-05-08 15:28 6.75209 3.95146 36884 ft 487 kts 86°
2026-05-08 15:29 6.75697 4.01939 36882 ft 487 kts 86°
2026-05-08 15:29 6.76184 4.08734 36883 ft 487 kts 86°
2026-05-08 15:30 6.76672 4.15535 36881 ft 487 kts 85°
2026-05-08 15:30 6.77159 4.22340 36881 ft 488 kts 85°
2026-05-08 15:31 6.77646 4.29155 36879 ft 489 kts 85°
2026-05-08 15:31 6.78132 4.35980 36875 ft 489 kts 85°
2026-05-08 15:32 6.78617 4.42800 36876 ft 489 kts 85°
2026-05-08 15:32 6.79115 4.49619 36873 ft 489 kts 85°
2026-05-08 15:33 6.79624 4.56439 36873 ft 489 kts 85°
2026-05-08 15:33 6.80131 4.63248 36868 ft 487 kts 85°
2026-05-08 15:34 6.80633 4.70028 36867 ft 486 kts 85°
2026-05-08 15:34 6.81133 4.76808 36870 ft 486 kts 85°
2026-05-08 15:35 6.81633 4.83586 36867 ft 486 kts 85°
2026-05-08 15:35 6.82131 4.90363 36862 ft 487 kts 85°
2026-05-08 15:36 6.82628 4.97160 36865 ft 487 kts 85°
2026-05-08 15:36 6.83075 5.03964 36856 ft 487 kts 86°
2026-05-08 15:37 6.83505 5.10766 36856 ft 487 kts 85°
2026-05-08 15:37 6.83942 5.17565 36857 ft 487 kts 85°
2026-05-08 15:38 6.84383 5.24363 36851 ft 487 kts 85°
2026-05-08 15:38 6.84825 5.31167 36851 ft 487 kts 85°
2026-05-08 15:39 6.85266 5.37957 36845 ft 486 kts 86°
2026-05-08 15:39 6.85703 5.44734 36845 ft 485 kts 86°
2026-05-08 15:40 6.86138 5.51500 36837 ft 485 kts 86°
2026-05-08 15:40 6.86574 5.58269 36837 ft 485 kts 86°
2026-05-08 15:41 6.87008 5.65036 36831 ft 485 kts 86°
2026-05-08 15:41 6.87441 5.71801 36831 ft 484 kts 86°
2026-05-08 15:42 6.87871 5.78552 36831 ft 482 kts 86°
2026-05-08 15:42 6.88300 5.85288 36829 ft 482 kts 86°
2026-05-08 15:43 6.88729 5.92018 36829 ft 482 kts 86°
2026-05-08 15:43 6.89162 5.98748 36829 ft 482 kts 86°
2026-05-08 15:44 6.89606 6.05480 36829 ft 482 kts 86°
2026-05-08 15:44 6.90049 6.12210 36827 ft 483 kts 86°
2026-05-08 15:45 6.90492 6.18981 36826 ft 485 kts 86°
2026-05-08 15:45 6.90932 6.25759 36823 ft 486 kts 86°
2026-05-08 15:46 6.91372 6.32536 36823 ft 486 kts 86°
2026-05-08 15:46 6.91812 6.39322 36818 ft 486 kts 86°
2026-05-08 15:47 6.92256 6.46144 36818 ft 486 kts 86°
2026-05-08 15:47 6.92692 6.52924 36818 ft 485 kts 86°
2026-05-08 15:48 6.93338 6.63093 36812 ft 485 kts 86°
2026-05-08 15:49 6.93770 6.69869 36810 ft 485 kts 86°
2026-05-08 15:49 6.94201 6.76643 36809 ft 485 kts 86°
2026-05-08 15:50 6.94632 6.83417 36809 ft 485 kts 86°
2026-05-08 15:50 6.95060 6.90188 36813 ft 484 kts 85°
2026-05-08 15:51 6.95489 6.96952 36813 ft 484 kts 85°
2026-05-08 15:51 6.95915 7.03710 36818 ft 484 kts 86°
2026-05-08 15:52 6.96341 7.10477 36815 ft 484 kts 86°
2026-05-08 15:52 6.96761 7.17240 36823 ft 484 kts 86°
2026-05-08 15:53 6.97177 7.24000 36823 ft 484 kts 86°
2026-05-08 15:53 6.97593 7.30769 36826 ft 484 kts 86°
2026-05-08 15:54 6.98008 7.37528 36828 ft 484 kts 86°
2026-05-08 15:54 6.98423 7.44296 36829 ft 484 kts 86°
2026-05-08 15:55 6.98834 7.51011 36826 ft 484 kts 86°
2026-05-08 15:55 6.99453 7.61159 36823 ft 484 kts 85°
2026-05-08 15:56 6.99874 7.67909 36823 ft 483 kts 85°
2026-05-08 15:56 7.00293 7.74657 36815 ft 483 kts 85°
2026-05-08 15:57 7.00708 7.81447 36812 ft 483 kts 86°
2026-05-08 15:57 7.01106 7.88143 36813 ft 483 kts 86°
2026-05-08 15:58 7.01507 7.94888 36807 ft 483 kts 86°
2026-05-08 15:58 7.01912 8.01674 36807 ft 482 kts 85°
2026-05-08 15:59 7.02313 8.08403 36798 ft 481 kts 85°
2026-05-08 15:59 7.02714 8.15125 36799 ft 481 kts 85°
2026-05-08 16:00 7.03112 8.21843 36798 ft 481 kts 85°
2026-05-08 16:00 7.03443 8.27435 36799 ft 481 kts 85°
2026-05-08 16:01 7.03839 8.34151 36796 ft 481 kts 85°
2026-05-08 16:01 7.04236 8.40882 36795 ft 482 kts 85°
2026-05-08 16:02 7.04633 8.47629 36796 ft 483 kts 85°
2026-05-08 16:02 7.05029 8.54371 36796 ft 483 kts 85°
2026-05-08 16:03 7.05423 8.61118 36798 ft 483 kts 85°
2026-05-08 16:03 7.05816 8.67866 36801 ft 483 kts 85°
2026-05-08 16:04 7.06209 8.74610 36796 ft 484 kts 85°
2026-05-08 16:04 7.06602 8.81383 36799 ft 485 kts 86°
2026-05-08 16:05 7.06995 8.88177 36799 ft 486 kts 86°
2026-05-08 16:05 7.07387 8.94964 36799 ft 486 kts 86°
2026-05-08 16:06 7.07779 9.01756 36801 ft 486 kts 86°
2026-05-08 16:06 7.08169 9.08543 36801 ft 486 kts 86°
2026-05-08 16:07 7.08559 9.15334 36798 ft 486 kts 86°
2026-05-08 16:07 7.08926 9.22121 36799 ft 486 kts 87°
2026-05-08 16:08 7.09125 9.28932 36799 ft 486 kts 88°
2026-05-08 16:08 7.09282 9.35736 36799 ft 486 kts 88°
2026-05-08 16:09 7.09462 9.42540 36801 ft 486 kts 88°
2026-05-08 16:09 7.09658 9.49346 36802 ft 486 kts 88°
2026-05-08 16:10 7.09857 9.56139 36806 ft 485 kts 88°
2026-05-08 16:10 7.10055 9.62931 36807 ft 485 kts 88°
2026-05-08 16:11 7.10250 9.69722 36807 ft 485 kts 88°
2026-05-08 16:11 7.10445 9.76517 36808 ft 485 kts 88°
2026-05-08 16:12 7.10639 9.83310 36807 ft 485 kts 88°
2026-05-08 16:12 7.10831 9.90094 36812 ft 485 kts 87°
2026-05-08 16:13 7.11023 9.96876 36813 ft 485 kts 88°
2026-05-08 16:13 7.11214 10.03657 36814 ft 484 kts 88°